Weather History for Elmira, NY

Change the Weather History Date:

Friday, November 23, 2012

  Actual Average Record
Temperature  
Mean Temperature 40 °F -  
Max Temperature 55 °F 43 °F 72 °F (1931)
Min Temperature 24 °F 27 °F 11 °F (1969)
Degree Days  
Heating Degree Days 26    
Moisture  
Dew Point 30 °F    
Average Humidity 70    
Maximum Humidity 92    
Minimum Humidity 45    
Precipitation  
Precipitation 0.00 in - - ()
Sea Level Pressure  
Sea Level Pressure 29.83 in    
Wind  
Wind Speed 4 mph (WSW)    
Max Wind Speed 20 mph    
Max Gust Speed 31 mph    
Visibility 10 miles    
Events      
Averages and records for this station are not official NWS values.
T = Trace of Precipitation, MM = Missing Value Source: NWS Daily Summary

Daily Weather History Graph

Daily Weather History Graph

Search for Another Location

Airport:

Trip Planner

Search our weather history database for the weather conditions in past years. The results will help you decide how hot, cold, wet, or windy it might be!

Date:

Astronomy

Nov. 23, 2012 Rise Set
Actual Time 7:08 AM EST 4:39 PM EST
Civil Twilight 6:37 AM EST 5:10 PM EST
Nautical Twilight 6:02 AM EST 5:44 PM EST
Astronomical Twilight 5:29 AM EST 6:18 PM EST
Moon 1:57 PM EST (11/23) 2:20 AM EST (11/23)
Length of Visible Light 10h 33m
Length of Day
9h 31m
Waxing Gibbous, 79% of the Moon is Illuminated
Nov 23
Waxing Gibbous
Nov 28
Full
Dec 6
Last Quarter
Dec 13
New
Dec 20
First Quarter

Hourly Weather History & Observations

Time (EST) Temp. Windchill Dew Point Humidity Pressure Visibility Wind Dir Wind Speed Gust Speed Precip Events Conditions
12:53 AM 26.1 °F - 21.9 °F 84% 30.05 in 10.0 mi Calm Calm - N/A   Clear
1:53 AM 26.1 °F - 24.1 °F 92% 30.04 in 10.0 mi Calm Calm - N/A   Clear
2:53 AM 24.1 °F - 21.0 °F 88% 30.02 in 10.0 mi Calm Calm - N/A   Clear
3:53 AM 24.1 °F - 21.0 °F 88% 29.99 in 10.0 mi Calm Calm - N/A   Clear
4:53 AM 24.1 °F - 19.9 °F 84% 29.98 in 10.0 mi Calm Calm - N/A   Clear
5:53 AM 24.1 °F - 21.0 °F 88% 29.94 in 10.0 mi Calm Calm - N/A   Clear
6:53 AM 24.1 °F - 21.9 °F 91% 29.91 in 10.0 mi Calm Calm - N/A   Partly Cloudy
7:53 AM 27.0 °F - 23.0 °F 85% 29.89 in 9.0 mi Calm Calm - N/A   Clear
8:53 AM 35.1 °F - 30.0 °F 82% 29.87 in 10.0 mi Calm Calm - N/A   Clear
9:53 AM 45.0 °F - 33.1 °F 63% 29.83 in 10.0 mi Calm Calm - N/A   Clear
10:53 AM 48.0 °F - 36.0 °F 63% 29.80 in 10.0 mi South 4.6 mph - N/A   Scattered Clouds
11:53 AM 55.0 °F - 34.0 °F 45% 29.76 in 10.0 mi WSW 13.8 mph 24.2 mph N/A   Overcast
12:53 PM 55.0 °F - 37.0 °F 51% 29.73 in 10.0 mi WSW 19.6 mph 26.5 mph N/A   Overcast
1:53 PM 53.1 °F - 37.9 °F 57% 29.73 in 10.0 mi WSW 15.0 mph 24.2 mph N/A   Overcast
2:53 PM 51.1 °F - 41.0 °F 68% 29.73 in 10.0 mi SW 8.1 mph - 0.00 in   Overcast
3:53 PM 50.0 °F - 41.0 °F 71% 29.71 in 10.0 mi SSW 9.2 mph - N/A   Overcast
4:53 PM 48.9 °F - 39.0 °F 69% 29.70 in 10.0 mi SW 8.1 mph - N/A   Mostly Cloudy
5:53 PM 48.0 °F - 39.0 °F 71% 29.71 in 10.0 mi SW 8.1 mph - N/A   Mostly Cloudy
6:53 PM 46.0 °F 44.8 °F 39.0 °F 76% 29.70 in 10.0 mi West 3.5 mph - N/A   Overcast
7:53 PM 44.1 °F 38.6 °F 33.1 °F 65% 29.75 in 10.0 mi West 10.4 mph 21.9 mph 0.00 in   Overcast
8:53 PM 43.0 °F 35.1 °F 28.9 °F 58% 29.74 in 10.0 mi West 17.3 mph 24.2 mph N/A   Mostly Cloudy
9:53 PM 43.0 °F 35.7 °F 25.0 °F 49% 29.74 in 10.0 mi West 15.0 mph 31.1 mph N/A   Overcast
10:53 PM 39.9 °F 30.8 °F 21.0 °F 47% 29.75 in 10.0 mi West 18.4 mph 26.5 mph 0.00 in   Overcast
11:53 PM 37.9 °F 29.2 °F 21.0 °F 51% 29.76 in 10.0 mi West 15.0 mph 20.7 mph N/A   Overcast